This demonstration page uses our WeatherBlox Daily Observations layout. Learn more.

Left ArrowRight Arrow

38.20091, -84.87328

Hourly Observations for March 6, 2022

Temp ( °F °C ) Dew Point ( °F °C ) Humidity (%) Winds ( mph kmh ) Pressure ( in mb ) Visibility ( mi km ) Precip ( " mm )
12:53 am 00:53 Mostly Cloudy 71 21.7 48 8.9 44 44 SSW 18 30 29.98 1015 10 16 0.00 0.00
1:53 am 01:53 Clear 71 21.7 49 9.4 46 46 S 22 35 29.96 1014 10 16 0.00 0.00
2:53 am 02:53 Mostly Clear 70 21.1 50 10 49 49 SSW 22 35 29.95 1014 10 16 0.00 0.00
3:53 am 03:53 Mostly Cloudy 70 21.1 50 10 49 49 SSW 23 37 29.95 1014 10 16 0.00 0.00
4:53 am 04:53 Cloudy 70 21.1 51 10.6 51 51 SSW 18 30 29.95 1014 10 16 0.00 0.00
5:53 am 05:53 Cloudy 69 20.6 53 11.7 57 57 SSW 16 26 29.97 1015 10 16 0.00 0.00
6:44 am 06:44 Cloudy with Thunderstorms 67 19.4 55 12.8 66 66 SW 17 28 30.01 1016 5 8 0.03 0.76
6:53 am 06:53 Cloudy with Thunderstorms 65 18.3 57 13.9 76 76 WSW 10 17 30.01 1016 5 8 0.04 1.02
7:00 am 07:00 Cloudy with Nearby Thunderstorms 64 17.8 58 14.4 81 81 W 7 11 30.03 1017 6 10 0.01 0.25
7:11 am 07:11 Cloudy with Light Rain 63 17.2 58 14.4 84 84 NW 8 13 30.04 1017 7 11 0.02 0.51
7:50 am 07:50 Cloudy with Light Rain 63 17 59 15 88 88 W 8 13 30.03 1017 3 4 0.05 1.27
7:53 am 07:53 Cloudy with Light Rain 64 17.8 58 14.4 81 81 W 6 9 30.01 1016 6 10 0.05 1.27
8:10 am 08:10 Cloudy with Rain 64 17.8 58 14.4 81 81 SW 16 26 30.04 1017 2 3 0.06 1.52
8:20 am 08:20 Cloudy with Light Rain 63 17.2 58 14.4 84 84 SSW 13 20 30.04 1017 5 8 0.07 1.78
8:53 am 08:53 Cloudy with Light Rain 64 17.8 59 15 84 84 SSW 9 15 30.03 1017 7 11 0.09 2.29
9:53 am 09:53 Cloudy with Rain 63 17.2 59 15 87 87 SSW 14 22 30.05 1018 3 5 0.09 2.29
10:15 am 10:15 Cloudy with Nearby Thunderstorms 62 16.7 60 15.6 93 93 SSW 10 17 30.06 1018 6 10 0.03 0.76
10:30 am 10:30 Cloudy with Light Rain 63 17.2 60 15.6 90 90 SSW 12 19 30.06 1018 4 6 0.06 1.52
10:53 am 10:53 Cloudy with Light Rain 63 17.2 60 15.6 90 90 SSW 14 22 30.06 1018 9 14 0.06 1.52
11:53 am 11:53 Cloudy with Light Rain 64 17.8 61 16.1 90 90 SSW 12 19 30.05 1018 9 14 0.05 1.27
12:53 pm 12:53 Cloudy with Light Rain 63 17.2 60 15.6 90 90 SW 8 13 30.06 1018 9 14 0.05 1.27
1:35 pm 13:35 Cloudy with Light Rain 63 17.2 61 16.1 93 93 SSW 9 15 30.05 1018 7 11 0.02 0.51
1:53 pm 13:53 Cloudy with Light Rain 64 17.8 62 16.7 93 93 S 10 17 30.03 1017 10 16 0.02 0.51
2:03 pm 14:03 Mostly Cloudy 65 18.3 62 16.7 90 90 SSW 10 17 30.03 1017 10 16 0.00 0.00
2:53 pm 14:53 Cloudy 64 17.8 61 16.1 90 90 SSW 9 15 30.04 1017 10 16 0.00 0.00
3:35 pm 15:35 Cloudy with Heavy Rain 62 16.7 60 15.6 93 93 SW 10 17 30.04 1017 3 4 0.13 3.30
3:53 pm 15:53 Cloudy with Rain 62 16.7 60 15.6 93 93 SSW 10 17 30.02 1017 3 5 0.20 5.08
4:53 pm 16:53 Cloudy with Rain 62 16.7 61 16.1 96 96 SSW 13 20 30.03 1017 4 6 0.14 3.56
5:00 pm 17:00 Cloudy with Rain 62 16.7 61 16.1 96 96 SSW 15 24 30.04 1017 4 6 0.02 0.51
5:53 pm 17:53 Cloudy 62 16.7 60 15.6 93 93 SSW 12 19 30.02 1017 10 16 0.04 1.02
6:44 pm 18:44 Cloudy 61 16.1 59 15 93 93 S 9 15 30.03 1017 10 16 0.00 0.00
6:53 pm 18:53 Cloudy 61 16.1 59 15 93 93 SSW 12 19 30.04 1017 10 16 0.00 0.00
7:01 pm 19:01 Cloudy 61 16.1 59 15 93 93 S 10 17 30.04 1017 10 16 0.00 0.00
7:33 pm 19:33 Cloudy with Light Rain 61 16.1 59 15 93 93 Calm 30.02 1017 10 16 0.00 0.00
7:53 pm 19:53 Cloudy 60 15.6 59 15 96 96 SSE 7 11 30.01 1016 10 16 0.00 0.00
8:12 pm 20:12 Cloudy 60 15.6 59 15 96 96 S 8 13 30.01 1016 10 16 0.00 0.00
8:33 pm 20:33 Cloudy 60 15.6 58 14.4 93 93 SSE 8 13 30.00 1016 10 16 0.00 0.00
8:53 pm 20:53 Cloudy with Rain 60 15.6 58 14.4 93 93 S 8 13 29.99 1016 7 11 0.01 0.25
9:01 pm 21:01 Cloudy with Light Rain 60 15.6 58 14.4 93 93 SSE 6 9 29.99 1016 6 10 0.01 0.25
9:17 pm 21:17 Cloudy with Light Rain 60 15.6 58 14.4 93 93 SSE 9 15 29.98 1015 9 14 0.02 0.51
9:42 pm 21:42 Cloudy with Nearby Thunderstorms 59 15 58 14.4 96 96 SSW 3 6 29.99 1015 3 4 0.11 2.79
9:51 pm 21:51 Cloudy with Strong Thunderstorms 59 15 57 14 94 94 SW 8 13 30.01 1016 1 2 0.26 6.60
9:53 pm 21:53 Cloudy with Strong Thunderstorms 59 15 58 14.4 96 96 SSW 6 9 29.99 1016 1 2 0.31 7.87
10:06 pm 22:06 Cloudy with Thunderstorms 59 15 58 14.4 96 96 SSE 9 15 29.98 1015 2 3 0.16 4.06
10:10 pm 22:10 Cloudy with Nearby Thunderstorms 59 15 58 14.4 96 96 SSE 10 17 29.98 1015 4 6 0.17 4.32
10:22 pm 22:22 Cloudy with Rain 59 15 58 14.4 96 96 ESE 9 15 29.95 1014 3 5 0.21 5.33
10:42 pm 22:42 Cloudy 59 15 58 14.4 96 96 SSE 7 11 29.95 1014 10 16 0.21 5.33
10:53 pm 22:53 Cloudy 59 15 58 14.4 96 96 SE 12 19 29.92 1013 10 16 0.21 5.33
11:53 pm 23:53 Cloudy 59 15 57 13.9 93 93 SSE 10 17 29.88 1012 10 16 0.00 0.00

Powered by AerisWeather